DW0664 Weather Reports


Display with metric or nautical units.
time (UTC)temp
F
wind
direction
speed
MPH
gust
MPH
rain 1hr
in
rain 24hr
in
rain mn
in
humidity
%
barometer
mb
20260503235104 76 122 2.0 3.0 0.00 0.00 0.00 42 1019.7
20260503234603 76 88 1.0 1.0 0.00 0.00 0.00 41 1019.6
20260503234100 77 80 3.0 6.0 0.00 0.00 0.00 40 1019.4
20260503233556 77 70 0.0 1.0 0.00 0.00 0.00 40 1019.6
20260503233052 77 106 1.0 2.0 0.00 0.00 0.00 41 1019.7
20260503232550 78 74 1.0 3.0 0.00 0.00 0.00 40 1019.6
20260503232047 78 134 1.0 2.0 0.00 0.00 0.00 41 1019.9
20260503231545 78 81 2.0 3.0 0.00 0.00 0.00 40 1019.7
20260503231041 78 74 1.0 2.0 0.00 0.00 0.00 38 1019.7
20260503230538 79 79 1.0 4.0 0.00 0.00 0.00 36 1019.8
20260503230036 79 135 3.0 6.0 0.00 0.00 0.00 37 1019.8
20260503225532 80 123 0.0 2.0 0.00 0.00 0.00 40 1019.8
20260503225027 80 76 1.0 3.0 0.00 0.00 0.00 39 1019.8
20260503224525 80 25 0.0 1.0 0.00 0.00 0.00 38 1019.8
20260503224023 80 107 1.0 3.0 0.00 0.00 0.00 37 1019.9
20260503223520 80 174 2.0 2.0 0.00 0.00 0.00 39 1019.9
20260503223016 80 94 2.0 4.0 0.00 0.00 0.00 39 1019.9
20260503222514 80 86 1.0 4.0 0.00 0.00 0.00 38 1020.1
20260503222012 80 9 1.0 2.0 0.00 0.00 0.00 39 1020.1
20260503221510 80 64 1.0 1.0 0.00 0.00 0.00 41 1020.1
20260503221007 80 87 1.0 2.0 0.00 0.00 0.00 41 1020.1
20260503220503 79 74 0.0 2.0 0.00 0.00 0.00 41 1020.2
20260503220000 79 72 0.0 2.0 0.00 0.00 0.00 39 1020.2
20260503215457 80 78 0.0 2.0 0.00 0.00 0.00 38 1020.4
20260503214954 80 67 1.0 4.0 0.00 0.00 0.00 40 1020.4
20260503214452 79 104 3.0 4.0 0.00 0.00 0.00 40 1020.6
20260503213949 79 169 1.0 6.0 0.00 0.00 0.00 41 1020.5
20260503213448 79 112 2.0 2.0 0.00 0.00 0.00 41 1020.5
20260503212943 80 169 2.0 6.0 0.00 0.00 0.00 40 1020.8
20260503212441 80 100 1.0 3.0 0.00 0.00 0.00 40 1020.6
20260503211938 81 94 1.0 2.0 0.00 0.00 0.00 40 1020.6
20260503211435 81 117 1.0 1.0 0.00 0.00 0.00 38 1020.9
20260503210931 81 71 0.0 3.0 0.00 0.00 0.00 37 1021.0
20260503210428 81 67 0.0 1.0 0.00 0.00 0.00 37 1021.0
20260503205928 81 75 1.0 7.0 0.00 0.00 0.00 39 1021.4
20260503205425 81 65 1.0 2.0 0.00 0.00 0.00 39 1021.2
20260503204921 81 116 1.0 1.0 0.00 0.00 0.00 38 1021.3
20260503204418 80 86 3.0 6.0 0.00 0.00 0.00 38 1021.4
20260503203915 81 105 2.0 3.0 0.00 0.00 0.00 38 1021.4
20260503203413 81 122 2.0 4.0 0.00 0.00 0.00 40 1021.5
20260503202909 81 32 1.0 2.0 0.00 0.00 0.00 36 1021.5
20260503202408 81 73 1.0 3.0 0.00 0.00 0.00 40 1021.7
20260503201906 82 106 2.0 3.0 0.00 0.00 0.00 38 1021.7
20260503201403 81 125 2.0 4.0 0.00 0.00 0.00 41 1021.9
20260503200900 80 84 0.0 1.0 0.00 0.00 0.00 42 1021.8
20260503200356 79 64 0.0 2.0 0.00 0.00 0.00 44 1022.1
20260503195853 81 25 4.0 6.0 0.00 0.00 0.00 38 1021.8
20260503195349 81 75 2.0 3.0 0.00 0.00 0.00 38 1022.2
20260503194847 81 105 0.0 2.0 0.00 0.00 0.00 40 1022.3
20260503194343 81 61 0.0 1.0 0.00 0.00 0.00 41 1022.3
20260503193839 82 109 1.0 1.0 0.00 0.00 0.00 38 1022.6
20260503193335 81 77 1.0 2.0 0.00 0.00 0.00 37 1022.6
20260503192831 82 153 1.0 2.0 0.00 0.00 0.00 37 1022.6
20260503192327 81 43 1.0 4.0 0.00 0.00 0.00 37 1022.9
20260503191823 82 89 1.0 1.0 0.00 0.00 0.00 41 1022.9
20260503191321 81 63 0.0 0.0 0.00 0.00 0.00 42 1022.7
20260503190818 81 81 0.0 1.0 0.00 0.00 0.00 40 1023.0
20260503190315 81 64 0.0 1.0 0.00 0.00 0.00 41 1023.0
20260503185812 81 92 3.0 3.0 0.00 0.00 0.00 39 1023.1
20260503185308 81 96 1.0 4.0 0.00 0.00 0.00 39 1023.0
20260503184807 81 115 1.0 2.0 0.00 0.00 0.00 38 1023.1
20260503184304 81 356 1.0 2.0 0.00 0.00 0.00 38 1023.1
20260503183759 81 111 1.0 2.0 0.00 0.00 0.00 39 1023.2
20260503183257 81 67 2.0 3.0 0.00 0.00 0.00 37 1023.3
20260503182754 80 101 2.0 3.0 0.00 0.00 0.00 39 1023.4
20260503182253 80 90 1.0 2.0 0.00 0.00 0.00 39 1023.4
20260503181750 80 164 2.0 3.0 0.00 0.00 0.00 44 1023.4
20260503181247 80 82 0.0 2.0 0.00 0.00 0.00 43 1023.7
20260503180743 80 79 2.0 2.0 0.00 0.00 0.00 42 1023.6
20260503180242 79 67 0.0 1.0 0.00 0.00 0.00 45 1023.6
20260503175737 78 37 1.0 2.0 0.00 0.00 0.00 46 1023.9
20260503175231 78 57 1.0 2.0 0.00 0.00 0.00 43 1023.9
20260503174726 79 254 2.0 2.0 0.00 0.00 0.00 44 1023.9
20260503174224 78 113 1.0 1.0 0.00 0.00 0.00 43 1024.1
20260503173724 78 97 1.0 3.0 0.00 0.00 0.00 45 1024.0
20260503173220 78 63 1.0 1.0 0.00 0.00 0.00 44 1024.4
20260503172717 77 72 1.0 3.0 0.00 0.00 0.00 45 1024.3
20260503172215 77 150 4.0 4.0 0.00 0.00 0.00 43 1024.5
20260503171711 77 81 1.0 3.0 0.00 0.00 0.00 45 1024.4
20260503171209 77 116 3.0 3.0 0.00 0.00 0.00 45 1024.6
20260503170705 78 44 1.0 2.0 0.00 0.00 0.00 50 1024.7
20260503170202 77 94 0.0 1.0 0.00 0.00 0.00 52 1024.7
20260503160124 74 68 0.0 1.0 0.00 0.00 0.00 56 1024.9
20260503150554 72 79 1.0 1.0 0.00 0.00 0.00 56 1024.8
20260503130943 60 59 0.0 0.0 0.00 0.00 0.00 80 1024.2
20260503130441 59 58 0.0 0.0 0.00 0.00 0.00 82 1024.2
20260503110337 53 67 0.0 0.0 0.00 0.00 0.00 94 1022.7
20260503090223 53 67 0.0 0.0 0.00 0.00 0.00 90 1022.3
20260503081150 53 67 0.0 0.0 0.00 0.00 0.00 90 1022.4
20260503080646 53 66 0.0 0.0 0.00 0.00 0.00 90 1022.3
20260503080143 53 66 0.0 0.0 0.00 0.00 0.00 89 1022.5
20260503072621 54 67 0.0 0.0 0.00 0.00 0.00 86 1022.7
20260503072118 54 67 0.0 0.0 0.00 0.00 0.00 86 1022.9
20260503071614 55 68 0.0 0.0 0.00 0.00 0.00 86 1022.5
20260503071111 55 67 0.0 0.0 0.00 0.00 0.00 87 1022.8
20260503070608 55 66 0.0 0.0 0.00 0.00 0.00 86 1022.9
20260503070106 55 66 0.0 0.0 0.00 0.00 0.00 87 1022.9
20260503055031 55 68 0.0 0.0 0.00 0.00 0.00 85 1023.1
20260503054527 56 68 0.0 0.0 0.00 0.00 0.00 85 1023.2
20260503054025 56 68 0.0 0.0 0.00 0.00 0.00 85 1022.9
20260503053523 56 68 0.0 0.0 0.00 0.00 0.00 85 1023.0
20260503053020 56 68 0.0 0.0 0.00 0.00 0.00 84 1023.1
20260503052517 56 68 0.0 0.0 0.00 0.00 0.00 84 1023.0
20260503052013 56 67 0.0 0.0 0.00 0.00 0.00 84 1023.1
20260503051509 56 67 0.0 0.0 0.00 0.00 0.00 85 1022.9
20260503051007 56 67 0.0 0.0 0.00 0.00 0.00 85 1022.9
20260503050502 56 67 0.0 0.0 0.00 0.00 0.00 85 1022.8
20260503050000 56 68 0.0 0.0 0.00 0.00 0.00 85 1022.8
20260503045457 56 68 0.0 0.0 0.00 0.00 0.00 84 1022.8
20260503044954 56 68 0.0 0.0 0.00 0.00 0.00 85 1022.8
20260503044450 57 68 0.0 0.0 0.00 0.00 0.00 85 1023.0
20260503043948 57 67 0.0 0.0 0.00 0.00 0.00 85 1023.0
20260503043444 57 67 0.0 0.0 0.00 0.00 0.00 85 1022.9
20260503042941 57 67 0.0 0.0 0.00 0.00 0.00 84 1022.9
20260503042437 57 69 0.0 0.0 0.00 0.00 0.00 83 1023.0
20260503041934 57 66 0.0 0.0 0.00 0.00 0.00 83 1022.9
20260503041431 57 65 0.0 0.0 0.00 0.00 0.00 83 1023.0
20260503040928 57 68 0.0 0.0 0.00 0.00 0.00 82 1022.9
20260503040426 58 67 0.0 0.0 0.00 0.00 0.00 82 1022.7
20260503035923 58 67 0.0 0.0 0.00 0.00 0.00 81 1022.7
20260503035420 58 67 0.0 0.0 0.00 0.00 0.00 81 1022.7
20260503034917 58 67 0.0 0.0 0.00 0.00 0.00 81 1022.6
20260503034415 58 67 0.0 0.0 0.00 0.00 0.00 81 1022.7
20260503033911 59 67 0.0 0.0 0.00 0.00 0.00 81 1022.7
20260503033409 59 67 0.0 0.0 0.00 0.00 0.00 81 1022.7
20260503032907 59 68 0.0 0.0 0.00 0.00 0.00 80 1022.7
20260503032405 59 68 0.0 0.0 0.00 0.00 0.00 80 1022.8
20260503031903 59 67 0.0 0.0 0.00 0.00 0.00 78 1022.6
20260503031400 59 67 0.0 0.0 0.00 0.00 0.00 76 1022.6
20260503030856 59 66 0.0 0.0 0.00 0.00 0.00 76 1022.3
20260503030353 59 67 0.0 0.0 0.00 0.00 0.00 75 1022.4
20260503025849 60 67 0.0 0.0 0.00 0.00 0.00 75 1022.4
20260503025347 60 67 0.0 0.0 0.00 0.00 0.00 72 1022.3
20260503024844 60 67 0.0 0.0 0.00 0.00 0.00 74 1022.3
20260503024341 60 67 0.0 0.0 0.00 0.00 0.00 72 1022.3
20260503023837 60 67 0.0 0.0 0.00 0.00 0.00 70 1022.3
20260503023335 61 67 0.0 0.0 0.00 0.00 0.00 71 1022.1
20260503022832 61 67 0.0 0.0 0.00 0.00 0.00 72 1022.1
20260503022332 61 67 0.0 0.0 0.00 0.00 0.00 70 1022.1
20260503021828 62 67 0.0 0.0 0.00 0.00 0.00 68 1022.1
20260503021325 62 68 0.0 0.0 0.00 0.00 0.00 66 1022.1
20260503020822 62 66 0.0 0.0 0.00 0.00 0.00 66 1022.0
20260503020320 62 67 0.0 0.0 0.00 0.00 0.00 67 1021.9
20260503015816 62 67 0.0 0.0 0.00 0.00 0.00 65 1021.7
20260503015313 62 66 0.0 0.0 0.00 0.00 0.00 63 1021.7
20260503014809 62 67 0.0 0.0 0.00 0.00 0.00 62 1021.9
20260503014307 63 68 0.0 0.0 0.00 0.00 0.00 62 1021.7
20260503013804 63 68 0.0 0.0 0.00 0.00 0.00 61 1021.8
20260503013301 64 68 0.0 0.0 0.00 0.00 0.00 60 1021.6
20260503012758 64 69 0.0 0.0 0.00 0.00 0.00 58 1021.6
20260503012255 65 68 0.0 0.0 0.00 0.00 0.00 58 1021.5
20260503011752 65 67 0.0 0.0 0.00 0.00 0.00 55 1021.5
20260503011249 66 68 0.0 0.0 0.00 0.00 0.00 54 1021.3
20260503010745 67 69 0.0 0.0 0.00 0.00 0.00 53 1021.2
20260503010242 68 68 0.0 0.0 0.00 0.00 0.00 52 1021.3
20260503005740 68 68 0.0 0.0 0.00 0.00 0.00 50 1021.3
20260503005237 69 67 0.0 0.0 0.00 0.00 0.00 49 1021.1
20260503004733 70 69 0.0 0.0 0.00 0.00 0.00 47 1021.1
20260503004231 71 69 0.0 0.0 0.00 0.00 0.00 47 1020.9
20260503003728 71 65 0.0 2.0 0.00 0.00 0.00 47 1021.1
20260503003225 71 74 0.0 1.0 0.00 0.00 0.00 46 1021.1
20260503002722 72 69 0.0 0.0 0.00 0.00 0.00 46 1021.0
20260503002219 72 70 0.0 0.0 0.00 0.00 0.00 46 1020.9
20260503001715 72 70 0.0 0.0 0.00 0.00 0.00 47 1021.0
20260503001212 73 67 0.0 1.0 0.00 0.00 0.00 45 1020.9
20260503000710 73 64 0.0 1.0 0.00 0.00 0.00 45 1020.9
20260503000207 73 65 0.0 1.0 0.00 0.00 0.00 45 1020.9
20260502235703 73 63 0.0 1.0 0.00 0.00 0.00 47 1020.9